Location: Ammerl�gen
(47.2167°N, 9.6000°E)
Time: 03:30:07
(UTC+00:00)

COSMOS 2455 - Pass Details

Date: 21 April 2021
Orbit: 902 x 907 km, 67.1° (Epoch: 16 May)

Event Time Altitude Azimuth Distance (km) Brightness Sun altitude
Exits shadow 19:40:26 13° 156° (SSE) 2,383 4.5 -13.1°
Maximum altitude 19:44:30 25° 107° (ESE) 1,736 3.8 -13.7°
Drops below altitude 10° 19:49:17 10° 55° (NE) 2,596 5.1 -14.3°
Sets 19:52:12 0° 42° (NE) 3,543 5.9 -14.7°
